Total_Precipitation_Accumulation
0.76 0.88 0.78 0.53 0.40 0.31 0.23 0.26 0.24 0.16 0.14 0.22 0.19 0.11 0.04 0.04 0.07 0.07 0.06 0.06 0.07 0.07 0.08 0.13 0.24 0.33 0.37 0.43 0.48 0.55 0.68 0.71 0.78 0.84 0.92 0.97 0.91 0.91 0.91 0.86 0.83 0.79 0.82 0.84
0.90 0.72 0.40 0.31 0.28 0.30 0.32 0.33 0.26 0.18 0.16 0.25 0.22 0.11 0.05 0.04 0.05 0.05 0.05 0.06 0.07 0.07 0.08 0.13 0.21 0.29 0.34 0.37 0.38 0.43 0.59 0.70 0.74 0.77 0.79 0.83 0.85 0.85 0.88 0.84 0.85 0.85 0.83 0.88
0.73 0.43 0.24 0.38 0.45 0.43 0.37 0.30 0.23 0.22 0.22 0.27 0.27 0.17 0.05 0.03 0.04 0.06 0.07 0.08 0.08 0.06 0.07 0.10 0.14 0.21 0.29 0.33 0.34 0.37 0.50 0.64 0.73 0.78 0.91 0.95 1.00 1.05 1.03 0.95 0.87 0.84 0.86 0.87
0.54 0.29 0.28 0.44 0.53 0.49 0.41 0.21 0.20 0.25 0.39 0.42 0.31 0.32 0.09 0.04 0.05 0.06 0.07 0.07 0.07 0.06 0.07 0.08 0.09 0.15 0.23 0.29 0.32 0.37 0.51 0.64 0.72 0.79 0.89 0.93 0.92 0.95 0.95 0.88 0.82 0.79 0.81 0.85
0.63 0.34 0.34 0.43 0.40 0.42 0.37 0.22 0.23 0.32 0.45 0.52 0.34 0.37 0.14 0.06 0.08 0.09 0.08 0.09 0.08 0.08 0.07 0.07 0.08 0.12 0.19 0.30 0.34 0.38 0.49 0.66 0.76 0.83 0.85 0.88 0.86 0.81 0.85 0.93 0.91 0.87 0.84 0.84
0.50 0.32 0.38 0.35 0.28 0.36 0.41 0.43 0.47 0.52 0.81 0.99 0.34 0.30 0.17 0.11 0.12 0.11 0.10 0.09 0.10 0.11 0.09 0.08 0.10 0.11 0.17 0.30 0.38 0.45 0.49 0.59 0.75 0.87 0.88 0.85 0.83 0.81 0.84 0.92 0.97 0.98 0.93 0.88
0.72 0.46 0.37 0.33 0.46 0.59 0.73 1.07 1.64 1.70 1.63 0.89 0.16 0.19 0.20 0.11 0.09 0.10 0.11 0.09 0.09 0.11 0.12 0.11 0.12 0.13 0.16 0.25 0.36 0.44 0.50 0.52 0.62 0.82 0.89 0.83 0.82 0.80 0.78 0.83 0.89 0.92 0.95 0.94
0.80 0.62 0.40 0.36 0.49 0.73 0.84 1.06 1.34 1.20 0.75 0.27 0.10 0.15 0.16 0.08 0.05 0.06 0.08 0.09 0.08 0.08 0.11 0.12 0.12 0.15 0.18 0.21 0.31 0.42 0.51 0.54 0.58 0.69 0.81 0.84 0.87 0.85 0.79 0.79 0.84 0.87 0.87 0.88
0.79 0.52 0.27 0.25 0.28 0.40 0.69 0.83 0.71 0.84 0.54 0.30 0.20 0.13 0.12 0.05 0.04 0.03 0.04 0.07 0.10 0.10 0.12 0.15 0.15 0.17 0.18 0.22 0.29 0.36 0.46 0.58 0.60 0.61 0.74 0.84 0.89 0.90 0.81 0.77 0.79 0.84 0.85 0.88
0.85 0.71 0.34 0.30 0.38 0.45 0.54 0.65 0.86 1.25 1.01 0.49 0.22 0.13 0.15 0.10 0.06 0.04 0.03 0.04 0.07 0.10 0.12 0.15 0.19 0.18 0.18 0.21 0.28 0.34 0.38 0.51 0.66 0.64 0.69 0.83 0.89 0.93 0.91 0.84 0.80 0.78 0.78 0.85
0.84 0.95 0.60 0.51 0.66 0.62 0.57 0.78 1.04 1.15 0.92 0.61 0.32 0.22 0.20 0.11 0.07 0.07 0.06 0.05 0.06 0.08 0.10 0.14 0.20 0.22 0.20 0.20 0.26 0.35 0.39 0.47 0.61 0.71 0.70 0.75 0.86 0.90 0.95 0.94 0.85 0.79 0.77 0.79
0.80 1.11 0.85 0.53 0.45 0.41 0.49 0.63 0.79 1.07 0.87 0.51 0.39 0.24 0.15 0.10 0.07 0.07 0.08 0.06 0.05 0.08 0.09 0.14 0.23 0.25 0.24 0.24 0.27 0.35 0.36 0.40 0.50 0.67 0.77 0.75 0.79 0.91 0.93 0.86 0.82 0.84 0.82 0.81
1.24 1.63 1.40 1.02 0.79 0.67 0.76 0.66 0.64 0.70 0.72 0.56 0.42 0.21 0.11 0.07 0.06 0.05 0.06 0.07 0.05 0.06 0.07 0.12 0.20 0.23 0.25 0.26 0.30 0.38 0.37 0.35 0.38 0.56 0.71 0.81 0.83 0.88 0.94 0.88 0.80 0.84 0.87 0.85
1.73 1.88 1.26 1.03 0.80 0.70 0.70 0.57 0.55 0.78 0.96 0.53 0.23 0.15 0.11 0.08 0.06 0.06 0.06 0.07 0.07 0.06 0.06 0.08 0.12 0.16 0.21 0.21 0.26 0.33 0.35 0.33 0.31 0.43 0.60 0.71 0.80 0.86 0.90 0.92 0.90 0.86 0.86 0.88
1.78 1.73 0.73 0.37 0.29 0.35 0.39 0.35 0.40 0.57 0.57 0.46 0.18 0.12 0.12 0.11 0.10 0.09 0.09 0.09 0.08 0.07 0.08 0.07 0.08 0.12 0.16 0.18 0.21 0.27 0.32 0.33 0.31 0.33 0.44 0.60 0.71 0.82 0.89 0.93 0.95 0.97 0.96 0.89
1.63 1.58 0.78 0.43 0.22 0.29 0.32 0.24 0.26 0.29 0.27 0.25 0.14 0.10 0.07 0.07 0.08 0.08 0.08 0.10 0.11 0.10 0.10 0.08 0.08 0.10 0.13 0.17 0.19 0.23 0.28 0.30 0.30 0.32 0.34 0.47 0.64 0.77 0.86 0.92 1.00 1.00 1.01 1.00
1.49 1.48 1.24 0.77 0.33 0.58 0.65 0.32 0.27 0.26 0.23 0.21 0.23 0.19 0.10 0.05 0.06 0.09 0.11 0.13 0.14 0.13 0.11 0.10 0.09 0.09 0.12 0.14 0.17 0.22 0.25 0.26 0.27 0.26 0.26 0.34 0.47 0.67 0.79 0.85 0.94 1.06 1.06 1.04
1.11 1.28 1.59 1.17 0.91 1.22 0.61 0.25 0.23 0.28 0.30 0.25 0.23 0.18 0.13 0.08 0.07 0.09 0.13 0.16 0.13 0.12 0.12 0.10 0.10 0.10 0.12 0.12 0.14 0.20 0.23 0.24 0.26 0.26 0.23 0.25 0.32 0.48 0.65 0.81 0.89 0.99 1.10 1.10
0.62 1.15 1.80 1.60 1.27 0.76 0.32 0.23 0.31 0.35 0.38 0.29 0.22 0.15 0.11 0.07 0.07 0.09 0.10 0.12 0.13 0.13 0.12 0.11 0.10 0.11 0.11 0.11 0.14 0.17 0.19 0.23 0.24 0.25 0.24 0.22 0.24 0.34 0.50 0.66 0.78 0.87 1.00 1.04
0.63 1.11 1.91 1.75 1.35 0.72 0.36 0.21 0.22 0.31 0.46 0.27 0.21 0.20 0.16 0.13 0.16 0.14 0.11 0.11 0.12 0.11 0.11 0.11 0.11 0.12 0.11 0.11 0.15 0.19 0.17 0.19 0.22 0.22 0.22 0.21 0.22 0.27 0.38 0.51 0.65 0.80 0.91 0.98
0.99 1.51 1.78 1.37 1.13 0.58 0.31 0.21 0.21 0.49 0.56 0.29 0.24 0.23 0.22 0.23 0.22 0.16 0.12 0.11 0.12 0.11 0.11 0.12 0.13 0.12 0.12 0.13 0.17 0.22 0.20 0.19 0.22 0.22 0.21 0.21 0.21 0.24 0.31 0.45 0.58 0.76 0.88 0.97
0.76 1.03 1.01 0.90 1.05 0.64 0.31 0.27 0.46 0.56 0.33 0.27 0.24 0.22 0.22 0.21 0.17 0.14 0.13 0.13 0.12 0.12 0.12 0.15 0.15 0.13 0.13 0.15 0.20 0.25 0.23 0.21 0.22 0.22 0.22 0.22 0.20 0.22 0.29 0.43 0.56 0.70 0.86 0.99
0.54 0.71 0.73 0.65 0.60 0.43 0.36 0.39 0.40 0.34 0.31 0.27 0.24 0.22 0.20 0.20 0.19 0.16 0.14 0.14 0.14 0.15 0.15 0.16 0.18 0.16 0.16 0.17 0.22 0.27 0.25 0.24 0.23 0.21 0.21 0.22 0.22 0.24 0.28 0.38 0.53 0.73 0.85 0.96
0.39 0.37 0.49 0.49 0.37 0.29 0.26 0.27 0.27 0.27 0.27 0.24 0.22 0.21 0.19 0.19 0.18 0.17 0.15 0.16 0.17 0.19 0.18 0.17 0.18 0.19 0.21 0.23 0.26 0.28 0.28 0.27 0.23 0.22 0.21 0.23 0.26 0.30 0.31 0.38 0.49 0.68 0.84 0.96
0.36 0.34 0.38 0.41 0.31 0.25 0.21 0.19 0.19 0.19 0.19 0.18 0.17 0.18 0.19 0.17 0.15 0.14 0.14 0.15 0.17 0.19 0.19 0.18 0.18 0.19 0.24 0.28 0.28 0.27 0.29 0.30 0.26 0.24 0.23 0.24 0.28 0.33 0.36 0.42 0.50 0.62 0.75 0.97
0.27 0.31 0.37 0.40 0.31 0.31 0.25 0.18 0.15 0.14 0.15 0.15 0.14 0.14 0.14 0.15 0.13 0.11 0.14 0.16 0.17 0.18 0.16 0.16 0.17 0.18 0.21 0.26 0.28 0.27 0.28 0.29 0.29 0.28 0.26 0.28 0.32 0.34 0.36 0.45 0.56 0.66 0.74 0.84